Toronto Pearson, Ontario

9:28 PM EDT on July 26, 2017 (GMT -0400)
Toronto-Pearson International

Weather History for CYYZ - September, 2012

Change the Weather History Date:

Thursday, September 27, 2012

  Actual Average Record
Temperature  
Mean Temperature 51 °F -  
Max Temperature 61 °F 58 °F 78 °F (1998)
Min Temperature 41 °F 39 °F 35 °F (1997)
Degree Days  
Heating Degree Days 14    
Growing Degree Days 1 (Base 50)    
Moisture  
Dew Point 40 °F    
Average Humidity 62    
Maximum Humidity 81    
Minimum Humidity 33    
Precipitation  
Precipitation 0.00 in 0.08 in - ()
Sea Level Pressure  
Sea Level Pressure 30.23 in    
Wind  
Wind Speed 4 mph ()    
Max Wind Speed 9 mph    
Max Gust Speed -    
Visibility 15.0 miles    
Events      
Averages and records for this station are not official NWS values.
T = Trace of Precipitation, MM = Missing Value Source: Averaged Metar Reports

Daily Weather History Graph

Daily Weather History Graph

Search for Another Location

Airport or City:

Trip Planner

Search our weather history database for the weather conditions in past years. The results will help you decide how hot, cold, wet, or windy it might be!

Date:

Astronomy

Sep. 27, 2012 Rise Set
Actual Time 7:11 AM EDT 7:05 PM EDT
Civil Twilight 6:43 AM EDT 7:34 PM EDT
Nautical Twilight 6:09 AM EDT 8:07 PM EDT
Astronomical Twilight 5:36 AM EDT 8:41 PM EDT
Moon 5:39 PM EDT 4:35 AM EDT
Length of Visible Light 12h 51m
Length of Day
11h 53m
Waxing Gibbous, 94% of the Moon is Illuminated
Sep 27
Waxing Gibbous
Sep 29
Full
Oct 8
Last Quarter
Oct 15
New
Oct 21
First Quarter

Hourly Weather History & Observations

Time (EDT) Temp. Windchill Dew Point Humidity Pressure Visibility Wind Dir Wind Speed Gust Speed Precip Events Conditions
12:00 AM 50.0 °F - 41.0 °F 71% 30.17 in 15.0 mi NW 8.1 mph - N/A   Clear
1:00 AM 48.2 °F - 41.0 °F 76% 30.17 in 15.0 mi NW 9.2 mph - N/A   Partly Cloudy
2:00 AM 46 °F - 41 °F 75% 30.19 in 15 mi NNW 4.6 mph - -   Scattered Clouds
2:00 AM 46.4 °F 44.3 °F 41.0 °F 81% 30.19 in 15.0 mi NNW 4.6 mph - N/A   Partly Cloudy
3:00 AM 46.4 °F - 39.2 °F 76% 30.20 in 15.0 mi Calm Calm - N/A   Partly Cloudy
4:00 AM 46.4 °F - 39.2 °F 76% 30.20 in 15.0 mi Calm Calm - N/A   Clear
5:00 AM 44.6 °F 42.2 °F 39.2 °F 81% 30.22 in 15.0 mi North 4.6 mph - N/A   Clear
6:00 AM 44.6 °F - 39.2 °F 81% 30.23 in 15.0 mi Calm Calm - N/A   Clear
7:00 AM 42.8 °F - 37.4 °F 81% 30.26 in 15.0 mi North 2.3 mph - N/A   Partly Cloudy
8:00 AM 44 °F - 40 °F 79% 30.27 in 15 mi Calm Calm - -   Scattered Clouds
8:00 AM 44.6 °F - 39.2 °F 81% 30.27 in 15.0 mi North 2.3 mph - N/A   Partly Cloudy
9:00 AM 51.8 °F - 42.8 °F 71% 30.28 in 15.0 mi NNE 4.6 mph - N/A   Partly Cloudy
10:00 AM 53.6 °F - 42.8 °F 67% 30.29 in 15.0 mi North 4.6 mph - N/A   Partly Cloudy
11:00 AM 59.0 °F - 39.2 °F 48% 30.29 in 15.0 mi ENE 6.9 mph - N/A   Partly Cloudy
12:00 PM 59.0 °F - 37.4 °F 45% 30.28 in 15.0 mi ESE 2.3 mph - N/A   Scattered Clouds
1:00 PM 60.8 °F - 37.4 °F 42% 30.27 in 15.0 mi SSE 6.9 mph - N/A   Scattered Clouds
2:00 PM 61 °F - 40 °F 33% 30.25 in 15 mi SE 9.2 mph - -   Scattered Clouds
2:00 PM 60.8 °F - 39.2 °F 45% 30.25 in 15.0 mi SE 8.1 mph - N/A   Scattered Clouds
3:00 PM 60.8 °F - 39.2 °F 45% 30.23 in 15.0 mi South 8.1 mph - N/A   Scattered Clouds
4:00 PM 60.8 °F - 39.2 °F 45% 30.22 in 15.0 mi South 6.9 mph - N/A   Scattered Clouds
5:00 PM 59.0 °F - 37.4 °F 45% 30.22 in 15.0 mi SSE 6.9 mph - N/A   Scattered Clouds
6:00 PM 57.2 °F - 37.4 °F 48% 30.22 in 15.0 mi SE 6.9 mph - N/A   Mostly Cloudy
7:00 PM 57.2 °F - 39.2 °F 51% 30.21 in 15.0 mi ESE 4.6 mph - N/A   Mostly Cloudy
8:00 PM 56 °F - 40 °F 43% 30.21 in 15 mi East 3.5 mph - -   Scattered Clouds
8:00 PM 57.2 °F - 39.2 °F 51% 30.21 in 15.0 mi ENE 3.5 mph - N/A   Mostly Cloudy
9:00 PM 53.6 °F - 41.0 °F 62% 30.21 in 15.0 mi NE 5.8 mph - N/A   Mostly Cloudy
10:00 PM 51.8 °F - 41.0 °F 67% 30.21 in 15.0 mi NNE 5.8 mph - N/A   Scattered Clouds
11:00 PM 50.0 °F - 41.0 °F 71% 30.20 in 15.0 mi NNE 5.8 mph - N/A   Partly Cloudy